Lid_Strength_Index
1 1 1 2 2 2 2 2 2 2 2 2 2 2 3 3 3 3 2 2 2 1 1 1 1 1 2 6 7 -0 -2 -1 -0 1 3 4 6 6 9 8 8 9 8 7 7 7 7
2 2 2 2 3 3 3 3 3 3 3 3 3 3 3 3 3 3 3 3 2 2 1 1 1 1 5 10 3 -0 1 1 2 2 3 3 5 5 7 8 8 8 8 8 7 7 7
2 2 3 3 3 4 4 4 4 3 3 3 3 4 4 4 4 4 3 3 3 2 1 1 2 3 6 7 2 1 2 2 2 2 4 3 3 5 6 8 6 7 10 8 8 7 8
3 3 3 4 4 4 4 4 4 4 3 3 3 3 4 4 4 3 3 3 3 2 1 1 2 3 8 3 2 2 2 3 2 2 3 2 2 4 6 6 7 10 10 13 9 8 7
3 4 4 4 4 4 4 4 4 4 3 3 3 4 4 3 3 3 3 3 2 1 1 1 3 4 8 3 5 3 2 4 3 3 3 3 3 6 6 10 12 11 15 13 11 8 8
5 5 5 5 4 4 4 4 4 4 4 4 4 4 4 4 3 3 3 2 2 1 1 2 3 7 6 6 4 3 3 3 4 4 5 5 7 10 10 12 17 16 13 13 13 10 9
5 5 5 4 4 4 4 4 4 4 4 4 4 4 4 3 3 3 3 3 5 6 4 6 6 7 7 4 2 4 2 4 4 6 10 8 11 13 11 9 9 11 13 14 12 9 11
5 5 5 4 4 4 4 4 4 4 4 4 5 4 3 3 3 3 3 6 7 7 10 6 6 6 5 3 7 4 2 6 7 10 8 10 13 9 8 9 11 12 13 14 11 9 11
5 5 4 4 4 4 4 4 5 4 4 5 5 4 3 3 3 4 5 6 3 4 10 8 6 6 6 5 7 6 4 5 8 10 9 12 10 8 9 10 11 12 13 13 13 11 10
5 5 5 5 5 5 5 5 5 5 5 5 5 4 3 3 5 6 6 3 3 3 12 9 8 6 5 5 7 4 3 5 7 10 9 10 8 9 10 11 10 13 10 11 11 13 17
5 5 5 5 5 5 5 5 5 5 5 5 5 4 3 3 5 6 4 3 3 5 19 9 8 4 4 6 6 6 2 5 9 9 9 11 10 10 11 10 9 11 9 11 11 13 15
5 5 5 5 5 5 6 5 5 5 5 5 5 5 3 4 3 5 3 3 4 13 19 12 7 8 8 6 6 6 6 5 5 9 8 9 7 8 9 8 8 8 10 11 11 13 20
6 6 6 6 6 6 6 6 6 6 5 5 5 5 4 5 8 5 3 5 13 17 9 12 11 9 9 9 8 8 8 10 12 14 14 10 9 8 7 10 9 10 13 19 21 20 21
6 6 6 6 6 6 6 6 6 5 5 6 5 5 3 7 6 4 4 8 17 12 12 9 10 10 11 10 9 9 9 11 9 10 12 15 16 10 8 10 12 11 12 18 22 21 19
6 6 6 6 6 6 6 6 6 5 6 6 5 3 5 8 5 4 7 14 14 13 11 12 11 13 12 9 10 11 11 11 10 9 14 14 13 8 8 8 9 12 15 11 16 15 19
6 6 7 7 6 7 6 6 6 5 6 6 7 5 9 7 5 5 9 12 11 10 12 11 14 11 13 12 12 12 11 11 11 9 10 11 16 9 8 8 8 10 9 16 15 21 21
7 7 7 7 7 7 6 6 6 6 5 5 7 9 9 7 5 7 13 13 11 10 12 12 13 13 13 13 12 12 11 13 11 12 10 11 12 13 10 11 11 12 13 12 12 15 19
7 7 7 7 7 7 7 7 6 6 5 7 8 12 8 8 12 12 15 13 11 13 12 13 12 13 14 14 15 14 12 12 11 12 14 13 15 17 14 10 8 9 11 12 16 17 15
8 7 8 7 7 8 7 7 7 6 6 10 12 12 8 9 16 16 14 13 13 14 14 13 14 13 13 15 17 15 14 10 11 13 15 14 16 20 17 12 9 11 10 10 11 12 16
8 8 8 8 8 8 7 7 7 6 6 8 12 15 13 12 13 15 16 15 15 12 13 13 13 12 14 16 14 16 15 12 11 12 10 11 15 18 20 16 13 16 15 13 13 16 16
8 8 8 8 8 8 7 7 6 6 6 8 13 15 15 16 16 15 15 15 16 16 13 12 13 14 15 17 16 16 14 14 12 11 12 13 18 17 16 16 16 16 16 16 17 16 17
8 8 8 8 7 8 7 7 7 7 6 11 14 16 14 15 14 15 14 15 15 15 14 14 15 14 14 16 15 17 15 15 16 14 14 13 19 17 19 16 16 17 15 15 15 15 16
9 8 8 8 8 8 7 7 7 6 7 12 11 11 13 14 15 16 15 15 14 13 12 12 13 14 15 14 13 12 12 13 13 15 16 16 17 18 21 16 17 19 15 15 14 13 13
8 9 8 8 8 7 7 7 7 7 7 9 10 11 14 16 14 14 13 13 13 13 14 12 12 13 12 10 11 11 12 12 12 13 12 16 16 16 19 18 24 15 11 12 13 12 12
9 8 8 8 8 7 8 7 7 6 6 8 8 10 12 16 14 13 13 13 12 12 12 12 11 10 9 11 15 16 16 15 13 12 13 12 15 17 19 19 17 15 13 15 16 16 12
9 8 8 8 8 7 7 6 6 6 5 6 7 7 9 13 14 11 13 12 14 14 13 12 9 8 10 12 14 18 19 16 17 15 11 11 11 15 16 19 21 16 13 12 13 19 13
8 8 8 7 7 7 6 6 6 6 5 6 7 6 8 13 11 11 13 13 11 12 13 12 10 11 9 13 15 16 17 13 17 17 15 14 13 15 15 17 17 13 12 10 19 18 12
8 8 7 6 6 6 6 5 5 5 5 5 6 4 7 10 10 9 8 10 11 11 14 11 12 11 11 14 15 15 16 14 15 14 14 15 16 16 15 17 21 10 10 14 12 10 10
7 7 7 6 6 6 5 5 5 4 4 4 7 4 4 7 10 7 6 5 6 6 8 9 10 9 9 12 12 12 13 13 14 17 11 15 12 14 13 14 10 8 9 8 7 9 9